Year,Month,Day,Hour,Minute,Value (Times are PST for temperature in C)
2016,07,22,00,00,16.80
2016,07,22,00,01,16.80
2016,07,22,00,02,16.90
2016,07,22,00,03,16.90
2016,07,22,00,04,16.90
2016,07,22,00,05,17.00
2016,07,22,00,06,17.00
2016,07,22,00,07,17.00
2016,07,22,00,08,17.00
2016,07,22,00,09,17.00
2016,07,22,00,10,17.00
2016,07,22,00,11,16.90
2016,07,22,00,12,16.90
2016,07,22,00,13,16.90
2016,07,22,00,14,16.90
2016,07,22,00,15,16.90
2016,07,22,00,16,17.00
2016,07,22,00,17,17.00
2016,07,22,00,18,17.00
2016,07,22,00,19,17.00
2016,07,22,00,20,17.00
2016,07,22,00,21,17.00
2016,07,22,00,22,17.10
2016,07,22,00,23,17.10
2016,07,22,00,24,17.10
2016,07,22,00,25,17.10
2016,07,22,00,26,17.10
2016,07,22,00,27,17.10
2016,07,22,00,28,17.00
2016,07,22,00,29,17.00
2016,07,22,00,30,17.00
2016,07,22,00,31,16.90
2016,07,22,00,32,16.90
2016,07,22,00,33,16.90
2016,07,22,00,34,16.80
2016,07,22,00,35,16.80
2016,07,22,00,36,16.70
2016,07,22,00,37,16.70
2016,07,22,00,38,16.70
2016,07,22,00,39,16.60
2016,07,22,00,40,16.60
2016,07,22,00,41,16.50
2016,07,22,00,42,16.50
2016,07,22,00,43,16.40
2016,07,22,00,44,16.40
2016,07,22,00,45,16.30
2016,07,22,00,46,16.30
2016,07,22,00,47,16.30
2016,07,22,00,48,16.20
2016,07,22,00,49,16.20
2016,07,22,00,50,16.20
2016,07,22,00,51,16.20
2016,07,22,00,52,16.10
2016,07,22,00,53,16.10
2016,07,22,00,54,16.00
2016,07,22,00,55,16.00
2016,07,22,00,56,15.90
2016,07,22,00,57,15.90
2016,07,22,00,58,15.80
2016,07,22,00,59,15.90
2016,07,22,01,00,15.90
2016,07,22,01,01,15.80
2016,07,22,01,02,15.80
2016,07,22,01,03,15.80
2016,07,22,01,04,15.80
2016,07,22,01,05,15.80
2016,07,22,01,06,15.80
2016,07,22,01,07,15.70
2016,07,22,01,08,15.70
2016,07,22,01,09,15.70
2016,07,22,01,10,15.70
2016,07,22,01,11,15.70
2016,07,22,01,12,15.80
2016,07,22,01,13,15.80
2016,07,22,01,14,15.80
2016,07,22,01,15,15.80
2016,07,22,01,16,15.80
2016,07,22,01,17,15.70
2016,07,22,01,18,15.70
2016,07,22,01,19,15.70
2016,07,22,01,20,15.70
2016,07,22,01,21,15.70
2016,07,22,01,22,15.70
2016,07,22,01,23,15.70
2016,07,22,01,24,15.60
2016,07,22,01,25,15.60
2016,07,22,01,26,15.60
2016,07,22,01,27,15.60
2016,07,22,01,28,15.50
2016,07,22,01,29,15.50
2016,07,22,01,30,15.50
2016,07,22,01,31,15.40
2016,07,22,01,32,15.40
2016,07,22,01,33,15.40
2016,07,22,01,34,15.40
2016,07,22,01,35,15.30
2016,07,22,01,36,15.30
2016,07,22,01,37,15.30
2016,07,22,01,38,15.30
2016,07,22,01,39,15.30
2016,07,22,01,40,15.30
2016,07,22,01,41,15.30
2016,07,22,01,42,15.20
2016,07,22,01,43,15.20
2016,07,22,01,44,15.20
2016,07,22,01,45,15.20
2016,07,22,01,46,15.20
2016,07,22,01,47,15.20
2016,07,22,01,48,15.20
2016,07,22,01,49,15.20
2016,07,22,01,50,15.20
2016,07,22,01,51,15.10
2016,07,22,01,52,15.10
2016,07,22,01,53,15.10
2016,07,22,01,54,15.20
2016,07,22,01,55,15.20
2016,07,22,01,56,15.20
2016,07,22,01,57,15.20
2016,07,22,01,58,15.10
2016,07,22,01,59,15.10
2016,07,22,02,00,15.10
2016,07,22,02,01,15.10
2016,07,22,02,02,15.10
2016,07,22,02,03,15.20
2016,07,22,02,04,15.20
2016,07,22,02,05,15.20
2016,07,22,02,06,15.10
2016,07,22,02,07,15.10
2016,07,22,02,08,15.10
2016,07,22,02,09,15.00
2016,07,22,02,10,15.00
2016,07,22,02,11,14.90
2016,07,22,02,12,15.00
2016,07,22,02,13,15.00
2016,07,22,02,14,15.10
2016,07,22,02,15,15.10
2016,07,22,02,16,15.20
2016,07,22,02,17,15.20
2016,07,22,02,18,15.30
2016,07,22,02,19,15.30
2016,07,22,02,20,15.30
2016,07,22,02,21,15.30
2016,07,22,02,22,15.40
2016,07,22,02,23,15.40
2016,07,22,02,24,15.40
2016,07,22,02,25,15.50
2016,07,22,02,26,15.50
2016,07,22,02,27,15.60
2016,07,22,02,28,15.50
2016,07,22,02,29,15.60
2016,07,22,02,30,15.50
2016,07,22,02,31,15.50
2016,07,22,02,32,15.50
2016,07,22,02,33,15.40
2016,07,22,02,34,15.40
2016,07,22,02,35,15.30
2016,07,22,02,36,15.30
2016,07,22,02,37,15.20
2016,07,22,02,38,15.20
2016,07,22,02,39,15.10
2016,07,22,02,40,15.10
2016,07,22,02,41,15.00
2016,07,22,02,42,14.90
2016,07,22,02,43,14.90
2016,07,22,02,44,14.80
2016,07,22,02,45,14.80
2016,07,22,02,46,14.80
2016,07,22,02,47,14.70
2016,07,22,02,48,14.70
2016,07,22,02,49,14.60
2016,07,22,02,50,14.60
2016,07,22,02,51,14.50
2016,07,22,02,52,14.50
2016,07,22,02,53,14.40
2016,07,22,02,54,14.40
2016,07,22,02,55,14.30
2016,07,22,02,56,14.30
2016,07,22,02,57,14.30
2016,07,22,02,58,14.20
2016,07,22,02,59,14.20
2016,07,22,03,00,14.20
2016,07,22,03,01,14.10
2016,07,22,03,02,14.10
2016,07,22,03,03,14.10
2016,07,22,03,04,14.00
2016,07,22,03,05,14.00
2016,07,22,03,06,14.00
2016,07,22,03,07,13.90
2016,07,22,03,08,13.90
2016,07,22,03,09,13.90
2016,07,22,03,10,13.90
2016,07,22,03,11,13.90
2016,07,22,03,12,13.90
2016,07,22,03,13,13.80
2016,07,22,03,14,13.80
2016,07,22,03,15,13.80
2016,07,22,03,16,13.90
2016,07,22,03,17,13.90
2016,07,22,03,18,13.90
2016,07,22,03,19,14.00
2016,07,22,03,20,14.00
2016,07,22,03,21,14.10
2016,07,22,03,22,14.10
2016,07,22,03,23,14.00
2016,07,22,03,24,14.00
2016,07,22,03,25,14.00
2016,07,22,03,26,13.90
2016,07,22,03,27,13.90
2016,07,22,03,28,13.90
2016,07,22,03,29,13.80
2016,07,22,03,30,13.80
2016,07,22,03,31,13.70
2016,07,22,03,32,13.70
2016,07,22,03,33,13.70
2016,07,22,03,34,13.60
2016,07,22,03,35,13.60
2016,07,22,03,36,13.60
2016,07,22,03,37,13.60
2016,07,22,03,38,13.70
2016,07,22,03,39,13.70
2016,07,22,03,40,13.70
2016,07,22,03,41,13.80
2016,07,22,03,42,13.90
2016,07,22,03,43,13.90
2016,07,22,03,44,14.00
2016,07,22,03,45,14.10
2016,07,22,03,46,14.10
2016,07,22,03,47,14.10
2016,07,22,03,48,14.20
2016,07,22,03,49,14.20
2016,07,22,03,50,14.20
2016,07,22,03,51,14.20
2016,07,22,03,52,14.20
2016,07,22,03,53,14.20
2016,07,22,03,54,14.10
2016,07,22,03,55,14.00
2016,07,22,03,56,14.00
2016,07,22,03,57,13.90
2016,07,22,03,58,13.90
2016,07,22,03,59,13.80
2016,07,22,04,00,13.80
2016,07,22,04,01,13.80
2016,07,22,04,02,13.90
2016,07,22,04,03,13.80
2016,07,22,04,04,13.90
2016,07,22,04,05,13.90
2016,07,22,04,06,14.00
2016,07,22,04,07,14.00
2016,07,22,04,08,14.10
2016,07,22,04,09,14.10
2016,07,22,04,10,14.10
2016,07,22,04,11,14.10
2016,07,22,04,12,14.20
2016,07,22,04,13,14.20
2016,07,22,04,14,14.20
2016,07,22,04,15,14.20
2016,07,22,04,16,14.10
2016,07,22,04,17,14.10
2016,07,22,04,18,14.10
2016,07,22,04,19,14.00
2016,07,22,04,20,13.90
2016,07,22,04,21,13.90
2016,07,22,04,22,13.80
2016,07,22,04,23,13.80
2016,07,22,04,24,13.80
2016,07,22,04,25,13.80
2016,07,22,04,26,13.70
2016,07,22,04,27,13.70
2016,07,22,04,28,13.70
2016,07,22,04,29,13.60
2016,07,22,04,30,13.60
2016,07,22,04,31,13.60
2016,07,22,04,32,13.50
2016,07,22,04,33,13.50
2016,07,22,04,34,13.40
2016,07,22,04,35,13.40
2016,07,22,04,36,13.40
2016,07,22,04,37,13.40
2016,07,22,04,38,13.50
2016,07,22,04,39,13.50
2016,07,22,04,40,13.60
2016,07,22,04,41,13.60
2016,07,22,04,42,13.70
2016,07,22,04,43,13.70
2016,07,22,04,44,13.70
2016,07,22,04,45,13.70
2016,07,22,04,46,13.70
2016,07,22,04,47,13.70
2016,07,22,04,48,13.70
2016,07,22,04,49,13.70
2016,07,22,04,50,13.60
2016,07,22,04,51,13.60
2016,07,22,04,52,13.50
2016,07,22,04,53,13.60
2016,07,22,04,54,13.60
2016,07,22,04,55,13.60
2016,07,22,04,56,13.60
2016,07,22,04,57,13.70
2016,07,22,04,58,13.70
2016,07,22,04,59,13.70
2016,07,22,05,00,13.70
2016,07,22,05,01,13.70
2016,07,22,05,02,13.70
2016,07,22,05,03,13.60
2016,07,22,05,04,13.60
2016,07,22,05,05,13.50
2016,07,22,05,06,13.40
2016,07,22,05,07,13.40
2016,07,22,05,08,13.40
2016,07,22,05,09,13.30
2016,07,22,05,10,13.40
2016,07,22,05,11,13.40
2016,07,22,05,12,13.40
2016,07,22,05,13,13.40
2016,07,22,05,14,13.40
2016,07,22,05,15,13.50
2016,07,22,05,16,13.60
2016,07,22,05,17,13.60
2016,07,22,05,18,13.50
2016,07,22,05,19,13.50
2016,07,22,05,20,13.40
2016,07,22,05,21,13.40
2016,07,22,05,22,13.30
2016,07,22,05,23,13.20
2016,07,22,05,24,13.20
2016,07,22,05,25,13.10
2016,07,22,05,26,13.10
2016,07,22,05,27,13.00
2016,07,22,05,28,13.00
2016,07,22,05,29,12.90
2016,07,22,05,30,12.90
2016,07,22,05,31,12.90
2016,07,22,05,32,12.90
2016,07,22,05,33,12.90
2016,07,22,05,34,12.90
2016,07,22,05,35,12.90
2016,07,22,05,36,12.90
2016,07,22,05,37,12.90
2016,07,22,05,38,12.80
2016,07,22,05,39,12.80
2016,07,22,05,40,12.80
2016,07,22,05,41,12.80
2016,07,22,05,42,12.80
2016,07,22,05,43,12.80
2016,07,22,05,44,12.80
2016,07,22,05,45,12.80
2016,07,22,05,46,12.80
2016,07,22,05,47,12.80
2016,07,22,05,48,12.80
2016,07,22,05,49,12.80
2016,07,22,05,50,12.80
2016,07,22,05,51,12.80
2016,07,22,05,52,12.80
2016,07,22,05,53,12.80
2016,07,22,05,54,12.80
2016,07,22,05,55,12.70
2016,07,22,05,56,12.70
2016,07,22,05,57,12.70
2016,07,22,05,58,12.70
2016,07,22,05,59,12.70
2016,07,22,06,00,12.70
2016,07,22,06,01,12.70
2016,07,22,06,02,12.70
2016,07,22,06,03,12.70
2016,07,22,06,04,12.60
2016,07,22,06,05,12.60
2016,07,22,06,06,12.60
2016,07,22,06,07,12.60
2016,07,22,06,08,12.70
2016,07,22,06,09,12.70
2016,07,22,06,10,12.70
2016,07,22,06,11,12.70
2016,07,22,06,12,12.80
2016,07,22,06,13,12.80
2016,07,22,06,14,12.80
2016,07,22,06,15,12.80
2016,07,22,06,16,12.80
2016,07,22,06,17,12.80
2016,07,22,06,18,12.80
2016,07,22,06,19,12.80
2016,07,22,06,20,12.80
2016,07,22,06,21,12.80
2016,07,22,06,22,12.80
2016,07,22,06,23,12.80
2016,07,22,06,24,12.90
2016,07,22,06,25,12.90
2016,07,22,06,26,12.90
2016,07,22,06,27,12.90
2016,07,22,06,28,12.90
2016,07,22,06,29,13.00
2016,07,22,06,30,13.00
2016,07,22,06,31,13.10
2016,07,22,06,32,13.10
2016,07,22,06,33,13.20
2016,07,22,06,34,13.20
2016,07,22,06,35,13.30
2016,07,22,06,36,13.30
2016,07,22,06,37,13.30
2016,07,22,06,38,13.40
2016,07,22,06,39,13.40
2016,07,22,06,40,13.40
2016,07,22,06,41,13.50
2016,07,22,06,42,13.60
2016,07,22,06,43,13.60
2016,07,22,06,44,13.70
2016,07,22,06,45,13.70
2016,07,22,06,46,13.80
2016,07,22,06,47,13.90
2016,07,22,06,48,13.90
2016,07,22,06,49,14.00
2016,07,22,06,50,14.10
2016,07,22,06,51,14.10
2016,07,22,06,52,14.10
2016,07,22,06,53,14.10
2016,07,22,06,54,14.20
2016,07,22,06,55,14.30
2016,07,22,06,56,14.30
2016,07,22,06,57,14.40
2016,07,22,06,58,14.40
2016,07,22,06,59,14.40
2016,07,22,07,00,14.50
2016,07,22,07,01,14.50
2016,07,22,07,02,14.60
2016,07,22,07,03,14.60
2016,07,22,07,04,14.70
2016,07,22,07,05,14.70
2016,07,22,07,06,14.80
2016,07,22,07,07,14.80
2016,07,22,07,08,14.90
2016,07,22,07,09,15.00
2016,07,22,07,10,15.10
2016,07,22,07,11,15.10
2016,07,22,07,12,15.10
2016,07,22,07,13,15.10
2016,07,22,07,14,15.10
2016,07,22,07,15,15.10
2016,07,22,07,16,15.10
2016,07,22,07,17,15.10
2016,07,22,07,18,15.10
2016,07,22,07,19,15.20
2016,07,22,07,20,15.20
2016,07,22,07,21,15.20
2016,07,22,07,22,15.30
2016,07,22,07,23,15.30
2016,07,22,07,24,15.40
2016,07,22,07,25,15.50
2016,07,22,07,26,15.60
2016,07,22,07,27,15.60
2016,07,22,07,28,15.60
2016,07,22,07,29,15.60
2016,07,22,07,30,15.60
2016,07,22,07,31,15.60
2016,07,22,07,32,15.50
2016,07,22,07,33,15.50
2016,07,22,07,34,15.50
2016,07,22,07,35,15.50
2016,07,22,07,36,15.50
2016,07,22,07,37,15.50
2016,07,22,07,38,15.50
2016,07,22,07,39,15.50
2016,07,22,07,40,15.60
2016,07,22,07,41,15.60
2016,07,22,07,42,15.60
2016,07,22,07,43,15.60
2016,07,22,07,44,15.60
2016,07,22,07,45,15.70
2016,07,22,07,46,15.70
2016,07,22,07,47,15.70
2016,07,22,07,48,15.70
2016,07,22,07,49,15.80
2016,07,22,07,50,15.80
2016,07,22,07,51,15.80
2016,07,22,07,52,15.80
2016,07,22,07,53,15.90
2016,07,22,07,54,15.90
2016,07,22,07,55,15.90
2016,07,22,07,56,15.90
2016,07,22,07,57,15.90
2016,07,22,07,58,15.90
2016,07,22,07,59,15.90
2016,07,22,08,00,15.90
2016,07,22,08,01,15.80
2016,07,22,08,02,15.80
2016,07,22,08,03,15.90
2016,07,22,08,04,15.90
2016,07,22,08,05,15.90
2016,07,22,08,06,15.90
2016,07,22,08,07,16.00
2016,07,22,08,08,15.90
2016,07,22,08,09,15.90
2016,07,22,08,10,16.00
2016,07,22,08,11,16.00
2016,07,22,08,12,16.10
2016,07,22,08,13,16.10
2016,07,22,08,14,16.20
2016,07,22,08,15,16.20
2016,07,22,08,16,16.10
2016,07,22,08,17,16.10
2016,07,22,08,18,16.20
2016,07,22,08,19,16.20
2016,07,22,08,20,16.20
2016,07,22,08,21,16.30
2016,07,22,08,22,16.40
2016,07,22,08,23,16.40
2016,07,22,08,24,16.40
2016,07,22,08,25,16.40
2016,07,22,08,26,16.40
2016,07,22,08,27,16.40
2016,07,22,08,28,16.40
2016,07,22,08,29,16.40
2016,07,22,08,30,16.40
2016,07,22,08,31,16.40
2016,07,22,08,32,16.50
2016,07,22,08,33,16.50
2016,07,22,08,34,16.50
2016,07,22,08,35,16.50
2016,07,22,08,36,16.50
2016,07,22,08,37,16.50
2016,07,22,08,38,16.60
2016,07,22,08,39,16.60
2016,07,22,08,40,16.70
2016,07,22,08,41,16.70
2016,07,22,08,42,16.70
2016,07,22,08,43,16.80
2016,07,22,08,44,16.90
2016,07,22,08,45,16.90
2016,07,22,08,46,16.90
2016,07,22,08,47,17.00
2016,07,22,08,48,17.10
2016,07,22,08,49,17.10
2016,07,22,08,50,17.10
2016,07,22,08,51,17.10
2016,07,22,08,52,17.10
2016,07,22,08,53,17.10
2016,07,22,08,54,17.10
2016,07,22,08,55,17.10
2016,07,22,08,56,17.10
2016,07,22,08,57,17.10
2016,07,22,08,58,17.10
2016,07,22,08,59,17.10
2016,07,22,09,00,17.20
2016,07,22,09,01,17.20
2016,07,22,09,02,17.20
2016,07,22,09,03,17.20
2016,07,22,09,04,17.30
2016,07,22,09,05,17.30
2016,07,22,09,06,17.30
2016,07,22,09,07,17.30
2016,07,22,09,08,17.30
2016,07,22,09,09,17.30
2016,07,22,09,10,17.30
2016,07,22,09,11,17.40
2016,07,22,09,12,17.30
2016,07,22,09,13,17.30
2016,07,22,09,14,17.30
2016,07,22,09,15,17.30
2016,07,22,09,16,17.40
2016,07,22,09,17,17.40
2016,07,22,09,18,17.30
2016,07,22,09,19,17.30
2016,07,22,09,20,17.30
2016,07,22,09,21,17.30
2016,07,22,09,22,17.30
2016,07,22,09,23,17.40
2016,07,22,09,24,17.40
2016,07,22,09,25,17.50
2016,07,22,09,26,17.50
2016,07,22,09,27,17.50
2016,07,22,09,28,17.60
2016,07,22,09,29,17.60
2016,07,22,09,30,17.60
2016,07,22,09,31,17.60
2016,07,22,09,32,17.60
2016,07,22,09,33,17.60
2016,07,22,09,34,17.70
2016,07,22,09,35,17.70
2016,07,22,09,36,17.70
2016,07,22,09,37,17.80
2016,07,22,09,38,17.90
2016,07,22,09,39,17.90
2016,07,22,09,40,17.90
2016,07,22,09,41,17.80
2016,07,22,09,42,17.80
2016,07,22,09,43,17.80
2016,07,22,09,44,17.90
2016,07,22,09,45,17.90
2016,07,22,09,46,17.90
2016,07,22,09,47,17.90
2016,07,22,09,48,18.00
2016,07,22,09,49,18.00
2016,07,22,09,50,18.10
2016,07,22,09,51,18.20
2016,07,22,09,52,18.30
2016,07,22,09,53,18.30
2016,07,22,09,54,18.30
2016,07,22,09,55,18.40
2016,07,22,09,56,18.40
2016,07,22,09,57,18.50
2016,07,22,09,58,18.50
2016,07,22,09,59,18.50
2016,07,22,10,00,18.50
2016,07,22,10,01,18.50
2016,07,22,10,02,18.40
2016,07,22,10,03,18.30
2016,07,22,10,04,18.30
2016,07,22,10,05,18.30
2016,07,22,10,06,18.30
2016,07,22,10,07,18.30
2016,07,22,10,08,18.30
2016,07,22,10,09,18.30
2016,07,22,10,10,18.40
2016,07,22,10,11,18.50
2016,07,22,10,12,18.50
2016,07,22,10,13,18.60
2016,07,22,10,14,18.60
2016,07,22,10,15,18.60
2016,07,22,10,16,18.60
2016,07,22,10,17,18.60
2016,07,22,10,18,18.60
2016,07,22,10,19,18.60
2016,07,22,10,20,18.60
2016,07,22,10,21,18.70
2016,07,22,10,22,18.70
2016,07,22,10,23,18.70
2016,07,22,10,24,18.70
2016,07,22,10,25,18.70
2016,07,22,10,26,18.70
2016,07,22,10,27,18.60
2016,07,22,10,28,18.60
2016,07,22,10,29,18.70
2016,07,22,10,30,18.70
2016,07,22,10,31,18.80
2016,07,22,10,32,18.90
2016,07,22,10,33,19.00
2016,07,22,10,34,19.10
2016,07,22,10,35,19.20
2016,07,22,10,36,19.30
2016,07,22,10,37,19.40
2016,07,22,10,38,19.50
2016,07,22,10,39,19.60
2016,07,22,10,40,19.60
2016,07,22,10,41,19.60
2016,07,22,10,42,19.60
2016,07,22,10,43,19.60
2016,07,22,10,44,19.60
2016,07,22,10,45,19.60
2016,07,22,10,46,19.70
2016,07,22,10,47,19.80
2016,07,22,10,48,19.80
2016,07,22,10,49,19.90
2016,07,22,10,50,19.90
2016,07,22,10,51,20.00
2016,07,22,10,52,20.00
2016,07,22,10,53,20.00
2016,07,22,10,54,20.00
2016,07,22,10,55,20.00
2016,07,22,10,56,20.00
2016,07,22,10,57,20.00
2016,07,22,10,58,19.90
2016,07,22,10,59,19.80
2016,07,22,11,00,19.80
2016,07,22,11,01,19.80
2016,07,22,11,02,19.80
2016,07,22,11,03,19.80
2016,07,22,11,04,19.80
2016,07,22,11,05,19.80
2016,07,22,11,06,19.70
2016,07,22,11,07,19.70
2016,07,22,11,08,19.60
2016,07,22,11,09,19.60
2016,07,22,11,10,19.50
2016,07,22,11,11,19.40
2016,07,22,11,12,19.30
2016,07,22,11,13,19.30
2016,07,22,11,14,19.20
2016,07,22,11,15,19.10
2016,07,22,11,16,19.10
2016,07,22,11,17,19.10
2016,07,22,11,18,19.10
2016,07,22,11,19,19.20
2016,07,22,11,20,19.20
2016,07,22,11,21,19.20
2016,07,22,11,22,19.30
2016,07,22,11,23,19.30
2016,07,22,11,24,19.30
2016,07,22,11,25,19.40
2016,07,22,11,26,19.40
2016,07,22,11,27,19.40
2016,07,22,11,28,19.50
2016,07,22,11,29,19.60
2016,07,22,11,30,19.60
2016,07,22,11,31,19.60
2016,07,22,11,32,19.60
2016,07,22,11,33,19.70
2016,07,22,11,34,19.70
2016,07,22,11,35,19.80
2016,07,22,11,36,19.70
2016,07,22,11,37,19.70
2016,07,22,11,38,19.80
2016,07,22,11,39,19.80
2016,07,22,11,40,19.80
2016,07,22,11,41,19.80
2016,07,22,11,42,19.80
2016,07,22,11,43,19.90
2016,07,22,11,44,20.00
2016,07,22,11,45,20.10
2016,07,22,11,46,20.20
2016,07,22,11,47,20.20
2016,07,22,11,48,20.20
2016,07,22,11,49,20.30
2016,07,22,11,50,20.30
2016,07,22,11,51,20.30
2016,07,22,11,52,20.30
2016,07,22,11,53,20.20
2016,07,22,11,54,20.20
2016,07,22,11,55,20.20
2016,07,22,11,56,20.10
2016,07,22,11,57,20.10
2016,07,22,11,58,20.00
2016,07,22,11,59,20.00
2016,07,22,12,00,19.90
2016,07,22,12,01,20.00
2016,07,22,12,02,20.00
2016,07,22,12,03,20.00
2016,07,22,12,04,20.00
2016,07,22,12,05,19.90
2016,07,22,12,06,19.90
2016,07,22,12,07,19.90
2016,07,22,12,08,19.90
2016,07,22,12,09,19.80
2016,07,22,12,10,19.90
2016,07,22,12,11,19.90
2016,07,22,12,12,20.00
2016,07,22,12,13,20.10
2016,07,22,12,14,20.20
2016,07,22,12,15,20.30
2016,07,22,12,16,20.30
2016,07,22,12,17,20.40
2016,07,22,12,18,20.40
2016,07,22,12,19,20.50
2016,07,22,12,20,20.50
2016,07,22,12,21,20.60
2016,07,22,12,22,20.60
2016,07,22,12,23,20.70
2016,07,22,12,24,20.70
2016,07,22,12,25,20.80
2016,07,22,12,26,20.90
2016,07,22,12,27,20.90
2016,07,22,12,28,20.90
2016,07,22,12,29,21.00
2016,07,22,12,30,21.10
2016,07,22,12,31,21.10
2016,07,22,12,32,21.10
2016,07,22,12,33,21.20
2016,07,22,12,34,21.20
2016,07,22,12,35,21.20
2016,07,22,12,36,21.20
2016,07,22,12,37,21.20
2016,07,22,12,38,21.30
2016,07,22,12,39,21.30
2016,07,22,12,40,21.20
2016,07,22,12,41,21.20
2016,07,22,12,42,21.10
2016,07,22,12,43,21.00
2016,07,22,12,44,20.90
2016,07,22,12,45,20.80
2016,07,22,12,46,20.80
2016,07,22,12,47,20.70
2016,07,22,12,48,20.60
2016,07,22,12,49,20.60
2016,07,22,12,50,20.50
2016,07,22,12,51,20.40
2016,07,22,12,52,20.40
2016,07,22,12,53,20.40
2016,07,22,12,54,20.40
2016,07,22,12,55,20.40
2016,07,22,12,56,20.40
2016,07,22,12,57,20.50
2016,07,22,12,58,20.60
2016,07,22,12,59,20.60
2016,07,22,13,00,20.70
2016,07,22,13,01,20.90
2016,07,22,13,02,21.00
2016,07,22,13,03,21.00
2016,07,22,13,04,20.90
2016,07,22,13,05,20.90
2016,07,22,13,06,20.90
2016,07,22,13,07,20.80
2016,07,22,13,08,20.80
2016,07,22,13,09,20.80
2016,07,22,13,10,20.80
2016,07,22,13,11,20.90
2016,07,22,13,12,20.80
2016,07,22,13,13,20.80
2016,07,22,13,14,20.70
2016,07,22,13,15,20.70
2016,07,22,13,16,20.50
2016,07,22,13,17,20.50
2016,07,22,13,18,20.50
2016,07,22,13,19,20.40
2016,07,22,13,20,20.40
2016,07,22,13,21,20.40
2016,07,22,13,22,20.40
2016,07,22,13,23,20.30
2016,07,22,13,24,20.30
2016,07,22,13,25,20.30
2016,07,22,13,26,20.20
2016,07,22,13,27,20.20
2016,07,22,13,28,20.20
2016,07,22,13,29,20.10
2016,07,22,13,30,20.10
2016,07,22,13,31,20.10
2016,07,22,13,32,20.10
2016,07,22,13,33,20.10
2016,07,22,13,34,20.10
2016,07,22,13,35,20.10
2016,07,22,13,36,20.20
2016,07,22,13,37,20.20
2016,07,22,13,38,20.20
2016,07,22,13,39,20.30
2016,07,22,13,40,20.50
2016,07,22,13,41,20.50
2016,07,22,13,42,20.50
2016,07,22,13,43,20.50
2016,07,22,13,44,20.50
2016,07,22,13,45,20.50
2016,07,22,13,46,20.60
2016,07,22,13,47,20.60
2016,07,22,13,48,20.60
2016,07,22,13,49,20.60
2016,07,22,13,50,20.70
2016,07,22,13,51,20.70
2016,07,22,13,52,20.70
2016,07,22,13,53,20.70
2016,07,22,13,54,20.70
2016,07,22,13,55,20.70
2016,07,22,13,56,20.70
2016,07,22,13,57,20.70
2016,07,22,13,58,20.70
2016,07,22,13,59,20.70
2016,07,22,14,00,20.70
2016,07,22,14,01,20.70
2016,07,22,14,02,20.70
2016,07,22,14,03,20.70
2016,07,22,14,04,20.80
2016,07,22,14,05,20.80
2016,07,22,14,06,20.70
2016,07,22,14,07,20.70
2016,07,22,14,08,20.70
2016,07,22,14,09,20.80
2016,07,22,14,10,20.80
2016,07,22,14,11,20.80
2016,07,22,14,12,20.90
2016,07,22,14,13,20.90
2016,07,22,14,14,21.00
2016,07,22,14,15,21.10
2016,07,22,14,16,21.20
2016,07,22,14,17,21.30
2016,07,22,14,18,21.40
2016,07,22,14,19,21.50
2016,07,22,14,20,21.60
2016,07,22,14,21,21.60
2016,07,22,14,22,21.70
2016,07,22,14,23,21.70
2016,07,22,14,24,21.70
2016,07,22,14,25,21.70
2016,07,22,14,26,21.70
2016,07,22,14,27,21.70
2016,07,22,14,28,21.70
2016,07,22,14,29,21.60
2016,07,22,14,30,21.60
2016,07,22,14,31,21.50
2016,07,22,14,32,21.40
2016,07,22,14,33,21.40
2016,07,22,14,34,21.30
2016,07,22,14,35,21.30
2016,07,22,14,36,21.30
2016,07,22,14,37,21.30
2016,07,22,14,38,21.30
2016,07,22,14,39,21.30
2016,07,22,14,40,21.20
2016,07,22,14,41,21.20
2016,07,22,14,42,21.20
2016,07,22,14,43,21.30
2016,07,22,14,44,21.30
2016,07,22,14,45,21.30
2016,07,22,14,46,21.30
2016,07,22,14,47,21.30
2016,07,22,14,48,21.30
2016,07,22,14,49,21.30
2016,07,22,14,50,21.40
2016,07,22,14,51,21.40
2016,07,22,14,52,21.40
2016,07,22,14,53,21.40
2016,07,22,14,54,21.40
2016,07,22,14,55,21.40
2016,07,22,14,56,21.40
2016,07,22,14,57,21.40
2016,07,22,14,58,21.30
2016,07,22,14,59,21.30
2016,07,22,15,00,21.30
2016,07,22,15,01,21.20
2016,07,22,15,02,21.20
2016,07,22,15,03,21.20
2016,07,22,15,04,21.20
2016,07,22,15,05,21.20
2016,07,22,15,06,21.10
2016,07,22,15,07,21.10
2016,07,22,15,08,21.00
2016,07,22,15,09,21.00
2016,07,22,15,10,21.00
2016,07,22,15,11,21.00
2016,07,22,15,12,21.10
2016,07,22,15,13,21.10
2016,07,22,15,14,21.20
2016,07,22,15,15,21.20
2016,07,22,15,16,21.30
2016,07,22,15,17,21.30
2016,07,22,15,18,21.20
2016,07,22,15,19,21.20
2016,07,22,15,20,21.10
2016,07,22,15,21,21.10
2016,07,22,15,22,21.00
2016,07,22,15,23,21.00
2016,07,22,15,24,20.90
2016,07,22,15,25,20.90
2016,07,22,15,26,20.90
2016,07,22,15,27,20.80
2016,07,22,15,28,20.80
2016,07,22,15,29,20.80
2016,07,22,15,30,20.90
2016,07,22,15,31,21.00
2016,07,22,15,32,21.00
2016,07,22,15,33,21.10
2016,07,22,15,34,21.10
2016,07,22,15,35,21.00
2016,07,22,15,36,21.00
2016,07,22,15,37,21.10
2016,07,22,15,38,21.20
2016,07,22,15,39,21.20
2016,07,22,15,40,21.20
2016,07,22,15,41,21.20
2016,07,22,15,42,21.30
2016,07,22,15,43,21.30
2016,07,22,15,44,21.40
2016,07,22,15,45,21.40
2016,07,22,15,46,21.40
2016,07,22,15,47,21.50
2016,07,22,15,48,21.50
2016,07,22,15,49,21.50
2016,07,22,15,50,21.40
2016,07,22,15,51,21.40
2016,07,22,15,52,21.30
2016,07,22,15,53,21.30
2016,07,22,15,54,21.30
2016,07,22,15,55,21.30
2016,07,22,15,56,21.30
2016,07,22,15,57,21.30
2016,07,22,15,58,21.30
2016,07,22,15,59,21.30
2016,07,22,16,00,21.40
2016,07,22,16,01,21.30
2016,07,22,16,02,21.30
2016,07,22,16,03,21.30
2016,07,22,16,04,21.40
2016,07,22,16,05,21.40
2016,07,22,16,06,21.40
2016,07,22,16,07,21.50
2016,07,22,16,08,21.50
2016,07,22,16,09,21.60
2016,07,22,16,10,21.60
2016,07,22,16,11,21.60
2016,07,22,16,12,21.60
2016,07,22,16,13,21.60
2016,07,22,16,14,21.70
2016,07,22,16,15,21.70
2016,07,22,16,16,21.70
2016,07,22,16,17,21.80
2016,07,22,16,18,21.90
2016,07,22,16,19,21.90
2016,07,22,16,20,22.00
2016,07,22,16,21,22.10
2016,07,22,16,22,22.10
2016,07,22,16,23,22.20
2016,07,22,16,24,22.20
2016,07,22,16,25,22.30
2016,07,22,16,26,22.30
2016,07,22,16,27,22.20
2016,07,22,16,28,22.20
2016,07,22,16,29,22.10
2016,07,22,16,30,22.10
2016,07,22,16,31,22.00
2016,07,22,16,32,22.00
2016,07,22,16,33,21.90
2016,07,22,16,34,21.90
2016,07,22,16,35,21.90
2016,07,22,16,36,21.90
2016,07,22,16,37,21.90
2016,07,22,16,38,21.90
2016,07,22,16,39,21.90
2016,07,22,16,40,22.00
2016,07,22,16,41,22.00
2016,07,22,16,42,22.10
2016,07,22,16,43,22.10
2016,07,22,16,44,22.10
2016,07,22,16,45,22.10
2016,07,22,16,46,22.10
2016,07,22,16,47,22.10
2016,07,22,16,48,22.10
2016,07,22,16,49,22.10
2016,07,22,16,50,22.10
2016,07,22,16,51,22.00
2016,07,22,16,52,22.00
2016,07,22,16,53,21.90
2016,07,22,16,54,21.90
2016,07,22,16,55,21.80
2016,07,22,16,56,21.80
2016,07,22,16,57,21.70
2016,07,22,16,58,21.70
2016,07,22,16,59,21.70
2016,07,22,17,00,21.60
2016,07,22,17,01,21.60
2016,07,22,17,02,21.50
2016,07,22,17,03,21.50
2016,07,22,17,04,21.50
2016,07,22,17,05,21.40
2016,07,22,17,06,21.40
2016,07,22,17,07,21.40
2016,07,22,17,08,21.50
2016,07,22,17,09,21.50
2016,07,22,17,10,21.50
2016,07,22,17,11,21.50
2016,07,22,17,12,21.50
2016,07,22,17,13,21.50
2016,07,22,17,14,21.40
2016,07,22,17,15,21.40
2016,07,22,17,16,21.40
2016,07,22,17,17,21.30
2016,07,22,17,18,21.30
2016,07,22,17,19,21.30